Starlink 34084

operational
NORAD ID: 63970 Int'l Des: 2025-099 Owner: SPXS Country: US Constellation: starlink
LEOCIRCULAR

About Starlink 34084

Description loading...

Live Position

Loading 3D Globe...

Upcoming Passes

Altitude History

Altitude vs Time

uPlot chart will show altitude changes over time

Two-Line Element Set

1 63970U 25099U 26063.40921242 .00036481 00000-0 13273-2 0 9991
2 63970 42.9931 205.6046 0001234 149.7823 210.3100 15.27612846 46539
Epoch: Mar 4, 2026 • Age: 19 hours

Current Status

Altitude 482.7 km
Velocity 7.63 km/s
Sub-Earth Point 6.34°N, 118.47°E
Launch Date May 13, 2025
Age 0.8 years
Type internet

Technical Details

Classification Payload
Mass 575.00 kg
Dry Mass 530.00 kg
Total Mass 575.00 kg
Length 0.30 m
Diameter 4.10 m
Span 29.00 m
Shape Box + pan
Manufacturer SPXS
Bus Type Starlink V2MO
Phase Status In Orbit
Owner/State SPXS/US

Large Constellations

Loading constellations...